Location: Campestrin
(46.4667°N, 11.7167°E)
Time: 16:25:28
(UTC+00:00)

DMSP B5D2-2 - Pass Details

Date: 18 April 2021
Orbit: 790 x 806 km, 98.3° (Epoch: 06 May)

Event Time Altitude Azimuth Distance (km) Brightness Sun altitude
Rises 18:50:03 0° 12° (NNE) 3,307 7.5 -8.0°
Reaches altitude 10° 18:52:22 10° 12° (NNE) 2,375 6.7 -8.4°
Maximum altitude 18:57:37 80° 286° (WNW) 816 4.3 -9.2°
Drops below altitude 10° 19:02:52 10° 200° (SSW) 2,368 6.5 -10.0°
Sets 19:05:11 0° 199° (SSW) 3,297 7.2 -10.4°
